SCP
0 0 0 0 0 0 0 0 0 0 0 0 0 0 0 0 0 0 0 0 0 0 0 1 0 0 1 0 1 0 0 1 1 0 0 0 0 0 0 0 0 0 0
0 0 0 0 0 0 0 0 0 0 0 0 0 0 0 0 0 0 0 0 0 0 0 0 0 0 1 1 1 1 1 1 1 1 1 0 0 0 0 0 0 0 0
1 0 0 0 0 0 0 0 0 0 0 0 0 0 0 0 0 0 0 0 0 0 1 0 0 0 0 1 1 0 1 1 1 0 1 1 1 0 0 0 0 0 0
0 0 0 0 0 0 0 0 0 -0 -0 0 0 0 0 0 0 0 0 0 0 1 0 1 1 1 1 1 1 1 1 1 1 1 1 1 1 1 1 0 0 0 0
0 0 0 0 0 0 0 0 -0 0 0 -0 0 0 0 0 0 0 0 0 0 0 0 0 0 0 1 1 1 1 1 1 1 1 1 1 1 1 1 0 0 0 0
0 0 0 0 0 0 0 0 0 0 0 0 0 0 0 0 0 0 0 0 0 0 0 0 0 0 0 0 0 1 0 1 1 1 1 1 1 1 1 1 0 0 0
0 0 0 0 0 0 0 0 0 0 0 0 0 0 0 0 0 0 0 0 0 0 0 0 0 0 0 0 0 0 1 1 0 0 1 1 0 1 1 1 0 0 0
0 0 0 0 0 0 0 0 -0 0 0 0 0 0 0 0 0 0 0 0 0 0 0 0 0 0 0 0 0 0 0 1 0 1 1 1 1 1 1 1 1 0 0
0 0 0 0 0 0 0 0 0 0 0 0 0 0 0 0 0 0 0 0 0 0 0 0 0 0 0 0 0 0 0 0 1 1 1 1 1 1 1 0 0 1 0
0 0 0 0 0 0 0 0 0 0 0 0 0 0 0 0 0 0 0 0 0 0 0 0 0 0 0 0 0 0 0 0 0 1 1 1 1 1 0 0 0 0 0
0 0 0 0 0 0 0 0 0 0 0 0 0 0 0 0 0 0 0 0 0 0 0 0 0 0 0 0 0 0 0 0 0 0 0 0 1 0 0 -0 0 0 0
0 0 0 0 0 0 0 0 0 0 0 0 0 0 0 0 0 0 0 0 0 0 0 0 0 0 0 0 0 0 0 0 0 0 0 0 0 0 0 0 0 0 0
0 0 0 0 0 0 0 0 0 0 0 0 0 0 0 0 0 0 0 0 0 0 0 0 0 0 0 0 0 0 0 0 0 0 0 0 0 0 0 0 0 1 0
0 0 0 0 0 0 0 0 0 0 0 0 0 0 0 0 0 0 0 0 0 0 0 0 0 0 0 0 0 0 0 0 0 0 0 0 0 0 0 0 0 0 0
0 0 0 0 0 0 0 0 0 0 0 0 0 0 0 0 0 0 0 0 0 0 0 0 0 0 0 0 0 -0 0 0 0 0 0 0 -0 0 0 0 0 0 0
0 0 0 0 0 0 0 0 0 0 0 0 0 0 0 0 0 0 0 0 0 0 0 0 0 0 0 0 0 0 -0 0 0 0 0 0 0 0 0 0 0 0 0
0 0 0 0 0 0 0 0 0 0 0 0 0 0 0 0 0 0 0 0 0 0 0 0 0 0 0 0 0 0 0 0 0 0 0 0 0 0 0 0 0 0 0
0 0 0 0 0 0 0 0 0 0 0 0 0 0 0 0 0 0 0 0 0 0 0 0 0 0 0 0 0 0 0 0 0 0 0 0 0 0 0 0 0 0 0
0 0 0 0 0 0 0 0 0 0 0 0 0 0 0 0 0 0 0 0 0 0 0 0 0 0 0 0 0 0 0 0 0 0 0 0 0 0 0 0 0 0 0
0 0 0 0 0 0 0 0 0 0 0 0 0 0 0 0 0 0 0 0 0 0 0 0 0 0 0 0 0 0 0 0 0 0 0 0 0 0 0 0 0 0 0
0 0 0 0 0 0 0 0 0 0 0 0 0 0 0 0 0 0 0 0 0 0 0 0 0 0 0 0 0 0 0 0 0 0 0 0 0 0 0 0 0 0 0
0 0 0 0 0 0 0 0 0 0 0 0 0 0 0 0 0 0 0 0 0 0 0 0 0 0 0 0 0 0 0 0 0 0 0 0 0 0 0 0 0 0 0
0 0 0 0 0 0 0 0 0 0 0 0 0 0 0 0 0 0 0 0 0 0 0 0 0 0 0 0 0 0 0 0 0 0 0 0 0 0 0 0 0 0 0
0 0 0 0 0 0 0 0 0 0 0 0 0 0 0 0 0 0 0 0 0 0 0 0 0 0 0 0 0 0 0 0 0 0 0 0 0 0 0 0 0 0 0
0 0 0 0 0 0 0 0 0 0 0 0 0 0 0 0 0 0 0 0 0 0 0 0 0 0 0 0 0 0 0 0 0 0 0 0 0 0 0 0 0 0 0
0 0 0 0 0 0 0 0 0 0 0 0 0 0 0 0 0 0 0 0 0 0 0 0 0 0 0 0 0 0 0 0 0 0 0 0 0 0 0 0 0 0 0
Wind_Speed_500mb
30 29 22 20 18 17 21 27 35 33 34 25 24 22 19 18 26 29 28 29 30 35 38 45 48 47 54 54 56 54 49 47 48 54 57 57 56 53 50 49 43 44 43
30 30 19 18 34 37 42 45 42 40 36 33 35 35 26 26 35 29 30 26 22 38 46 52 57 58 58 58 50 48 47 49 50 53 53 58 62 58 56 56 50 49 49
37 32 37 42 40 31 28 28 38 47 36 31 38 40 34 37 40 32 33 34 45 52 39 40 43 52 46 48 50 48 48 48 55 53 53 57 58 61 62 59 58 54 53
40 46 40 44 52 41 30 25 17 32 46 44 32 12 12 16 23 23 26 27 30 39 44 46 45 51 46 47 50 55 54 59 58 56 54 53 57 59 60 62 62 61 56
47 41 44 45 50 38 43 40 71 73 72 28 30 15 17 26 32 35 36 38 41 48 52 51 47 43 44 48 51 53 56 57 57 54 51 54 53 56 55 56 61 64 63
50 44 40 66 60 45 61 42 47 45 45 50 30 16 22 37 44 41 39 39 41 44 49 53 52 51 51 51 52 54 52 50 51 60 53 50 49 50 49 52 55 63 64
14 19 38 59 63 39 20 16 30 38 27 13 16 24 29 36 32 30 35 39 41 42 46 52 58 62 64 64 59 55 60 56 60 55 46 36 38 48 50 52 51 54 60
10 8 17 44 37 24 16 24 24 19 18 17 22 27 26 34 40 39 51 48 54 53 56 57 51 48 52 52 47 49 48 46 48 42 52 52 51 54 55 51 45 46 53
18 21 23 30 30 29 22 19 16 20 20 24 28 25 15 19 56 60 62 66 63 62 66 56 52 60 65 58 56 48 45 46 41 37 45 48 48 50 58 62 53 47 46
29 29 25 29 30 25 25 29 29 25 24 29 31 34 37 45 51 59 66 75 77 69 68 66 60 48 49 58 59 61 51 50 52 46 41 49 48 48 48 53 51 50 48
26 28 22 24 23 27 29 29 26 27 29 34 39 46 51 57 60 66 81 62 69 74 61 59 63 59 56 52 57 55 57 56 48 41 48 47 48 46 46 43 41 38 45
29 23 24 27 31 30 26 26 29 34 40 44 48 50 54 57 61 62 72 74 76 75 79 64 60 63 57 51 54 54 50 51 52 49 56 55 49 36 41 42 39 33 39
36 35 31 28 26 27 32 37 43 48 51 55 56 58 58 61 61 61 66 79 68 67 67 52 46 44 41 45 56 55 42 31 27 35 42 45 44 43 36 41 39 44 44
36 30 27 27 31 37 43 47 51 53 53 55 56 55 54 55 57 56 60 64 73 69 60 64 59 59 54 49 56 58 59 49 36 44 47 44 37 36 38 37 40 41 40
28 29 31 35 39 42 44 48 51 53 54 54 54 55 55 52 52 49 50 49 55 67 64 56 60 61 61 64 66 62 61 49 45 43 42 52 52 37 33 32 37 47 43
31 32 33 36 39 43 47 51 53 51 51 51 50 50 48 46 47 47 47 56 60 65 79 63 70 70 68 74 66 64 69 64 49 31 23 33 40 41 40 32 33 39 42
26 30 36 41 46 48 49 50 50 50 47 44 43 45 48 50 53 54 56 61 67 73 89 91 77 76 78 86 85 72 62 65 64 49 45 39 43 40 36 36 33 26 31
33 38 40 42 46 49 53 55 50 43 42 44 47 48 51 56 62 67 71 78 83 86 91 98 79 67 67 69 76 77 62 59 55 61 52 39 35 39 43 44 45 38 38
40 44 48 51 53 54 50 40 36 38 41 47 53 59 66 68 74 78 81 86 84 87 93 85 82 71 65 64 68 72 73 59 58 50 59 60 49 46 49 45 51 51 48
41 44 47 50 52 53 47 39 41 47 55 60 63 67 73 77 80 79 75 70 76 83 76 75 76 67 60 56 61 67 78 66 59 48 47 43 43 48 47 41 45 43 43
46 51 56 59 59 56 43 43 49 58 65 67 63 66 70 70 68 63 68 68 68 68 71 74 77 75 61 55 61 63 67 66 58 50 42 36 30 41 43 39 36 38 39
54 57 57 56 53 46 38 45 52 58 50 56 68 70 65 55 54 58 63 64 65 73 79 78 75 70 70 64 59 62 61 64 59 36 21 33 34 38 37 34 34 36 37
50 50 42 38 39 38 39 44 46 48 57 68 65 58 57 62 64 66 66 61 65 73 75 76 83 82 77 70 67 66 60 60 63 53 41 26 28 32 30 32 31 33 32
47 40 34 33 34 36 39 41 44 52 57 53 53 57 65 69 69 65 63 74 72 72 75 73 78 80 77 72 63 62 64 65 67 67 52 42 29 32 24 21 23 23 30
44 33 30 32 33 34 34 40 43 46 47 54 58 61 69 63 57 50 56 67 72 69 70 69 67 65 67 66 62 55 56 51 53 53 44 35 28 24 19 17 17 30 31
34 30 28 29 34 40 40 40 36 35 49 60 61 60 56 57 61 60 69 76 83 84 60 60 65 65 64 58 60 65 63 66 57 48 41 34 34 28 18 22 24 36 47
Wind_Direction_500mb
248 233 228 232 247 269 281 285 271 267 262 243 239 239 253 269 272 266 265 269 281 293 295 294 291 299 296 295 292 294 297 297 294 288 281 278 274 271 269 267 266 267 269
244 229 235 244 245 249 260 267 265 264 270 262 259 252 257 262 266 270 269 261 285 295 293 290 291 295 289 286 284 287 294 295 290 289 288 281 277 274 271 268 264 264 267
217 224 242 230 234 244 258 258 258 260 266 273 260 246 258 265 269 286 258 265 279 285 295 298 296 299 302 297 287 290 291 292 294 285 284 284 281 275 270 268 267 264 264
222 218 234 234 234 237 264 261 323 311 300 272 321 7 313 333 288 283 265 271 267 296 301 297 295 298 292 289 284 285 285 286 293 289 288 280 281 280 277 271 268 267 264
221 230 238 251 243 251 239 271 261 251 257 291 262 280 339 295 285 288 289 290 290 288 293 294 297 298 299 299 295 295 289 285 283 279 280 282 279 281 280 276 270 267 264
238 256 297 248 264 266 257 239 262 255 277 277 262 267 265 277 277 279 284 284 289 289 283 286 289 292 296 297 295 294 294 292 292 287 283 275 280 284 285 279 275 265 261
261 256 249 239 254 230 242 240 241 253 262 262 268 282 271 271 275 279 292 299 304 303 297 292 292 290 289 287 290 296 290 289 292 281 278 279 277 282 297 289 279 273 263
202 253 207 221 232 220 218 207 198 214 223 234 251 264 285 282 293 295 298 300 303 301 301 301 300 298 293 293 289 292 297 288 283 292 283 277 280 279 276 282 280 273 266
231 222 210 207 208 224 207 204 215 230 231 226 249 262 274 282 302 303 298 299 300 298 300 301 290 286 286 284 286 282 299 294 298 299 274 283 286 286 281 278 280 267 275
228 208 218 211 221 213 209 227 222 229 248 263 270 277 280 283 289 296 294 294 298 299 298 295 301 298 287 286 283 285 283 291 291 288 290 292 289 286 292 284 278 268 261
218 222 220 216 212 221 226 228 236 248 263 274 281 286 288 289 291 294 297 298 293 296 295 290 291 283 283 283 287 285 285 289 283 290 279 282 284 285 288 273 273 274 261
188 196 210 218 224 231 239 250 262 275 280 282 284 285 286 289 288 289 292 294 295 294 293 286 284 284 284 281 277 293 290 291 275 285 281 286 285 280 280 279 276 277 280
192 199 209 223 236 248 263 275 280 283 285 286 288 289 287 286 287 289 288 292 295 298 303 301 305 294 292 289 275 277 291 289 293 280 280 278 282 273 266 272 275 284 280
206 211 225 239 252 265 273 278 282 286 291 294 294 295 295 294 293 294 293 294 298 295 290 290 286 284 282 282 278 280 280 282 282 284 283 288 289 270 270 268 273 277 280
220 236 252 265 271 275 281 285 288 290 289 289 293 297 298 298 292 289 288 290 293 297 295 293 288 293 293 291 281 278 284 276 283 283 286 280 284 282 270 270 277 274 281
241 253 265 277 286 291 294 295 297 298 299 300 300 299 296 294 289 286 288 290 287 289 292 290 292 297 299 298 295 283 275 276 273 272 268 279 288 277 281 271 278 277 264
281 285 289 292 294 295 296 297 297 298 296 297 295 289 290 291 289 291 292 289 287 287 292 293 291 290 291 293 296 293 280 275 270 259 261 273 279 277 276 274 274 292 289
291 292 295 297 300 300 299 295 295 292 291 290 290 293 289 287 289 289 288 288 289 289 293 294 292 289 291 294 294 297 289 271 268 259 256 249 269 267 274 268 259 275 288
295 296 296 298 299 301 302 294 291 290 287 285 286 287 288 291 292 292 291 291 290 292 293 287 288 291 289 291 292 287 285 283 269 265 256 253 256 265 279 269 250 255 269
293 294 294 295 299 302 300 292 291 289 287 286 286 288 290 293 294 294 292 290 289 290 289 287 285 287 288 287 288 292 296 290 276 260 258 252 256 262 267 263 245 243 258
291 291 291 290 293 295 296 296 290 289 289 288 285 290 295 296 295 292 293 288 286 287 288 284 283 288 286 282 287 292 289 292 280 256 265 247 252 255 263 254 242 241 252
293 292 292 292 289 285 281 283 285 289 290 291 294 300 301 301 301 303 299 294 290 291 289 285 280 277 280 278 280 283 283 285 289 247 266 253 259 263 261 252 241 240 247
299 299 298 297 291 282 283 284 291 294 293 296 300 303 304 303 304 302 301 300 296 290 284 282 278 277 275 271 277 273 273 273 276 251 267 300 239 245 252 254 240 238 230
306 310 306 307 300 293 293 300 305 303 302 304 305 302 302 306 310 310 304 294 291 288 285 278 272 273 272 275 271 270 271 270 271 264 259 272 244 251 257 257 230 216 210
316 311 309 308 311 313 320 316 312 306 305 305 303 306 313 317 322 316 305 301 301 298 298 290 284 277 271 268 265 264 261 260 263 263 252 242 246 241 247 238 210 192 200
324 321 319 322 318 316 322 321 314 305 300 305 312 319 324 326 322 316 311 308 304 309 306 296 288 281 276 264 253 246 246 247 252 267 240 224 230 226 221 214 206 198 186
Wind_Speed_850mb
30 29 22 20 18 17 21 27 35 33 34 25 24 22 19 18 26 29 28 29 30 35 38 45 48 47 54 54 56 54 49 47 48 54 57 57 56 53 50 49 43 44 43
30 30 19 18 34 37 42 45 42 40 36 33 35 35 26 26 35 29 30 26 22 38 46 52 57 58 58 58 50 48 47 49 50 53 53 58 62 58 56 56 50 49 49
37 32 37 42 40 31 28 28 38 47 36 31 38 40 34 37 40 32 33 34 45 52 39 40 43 52 46 48 50 48 48 48 55 53 53 57 58 61 62 59 58 54 53
40 46 40 44 52 41 30 25 17 32 46 44 32 12 12 16 23 23 26 27 30 39 44 46 45 51 46 47 50 55 54 59 58 56 54 53 57 59 60 62 62 61 56
47 41 44 45 50 38 43 40 71 73 72 28 30 15 17 26 32 35 36 38 41 48 52 51 47 43 44 48 51 53 56 57 57 54 51 54 53 56 55 56 61 64 63
50 44 40 66 60 45 61 42 47 45 45 50 30 16 22 37 44 41 39 39 41 44 49 53 52 51 51 51 52 54 52 50 51 60 53 50 49 50 49 52 55 63 64
14 19 38 59 63 39 20 16 30 38 27 13 16 24 29 36 32 30 35 39 41 42 46 52 58 62 64 64 59 55 60 56 60 55 46 36 38 48 50 52 51 54 60
10 8 17 44 37 24 16 24 24 19 18 17 22 27 26 34 40 39 51 48 54 53 56 57 51 48 52 52 47 49 48 46 48 42 52 52 51 54 55 51 45 46 53
18 21 23 30 30 29 22 19 16 20 20 24 28 25 15 19 56 60 62 66 63 62 66 56 52 60 65 58 56 48 45 46 41 37 45 48 48 50 58 62 53 47 46
29 29 25 29 30 25 25 29 29 25 24 29 31 34 37 45 51 59 66 75 77 69 68 66 60 48 49 58 59 61 51 50 52 46 41 49 48 48 48 53 51 50 48
26 28 22 24 23 27 29 29 26 27 29 34 39 46 51 57 60 66 81 62 69 74 61 59 63 59 56 52 57 55 57 56 48 41 48 47 48 46 46 43 41 38 45
29 23 24 27 31 30 26 26 29 34 40 44 48 50 54 57 61 62 72 74 76 75 79 64 60 63 57 51 54 54 50 51 52 49 56 55 49 36 41 42 39 33 39
36 35 31 28 26 27 32 37 43 48 51 55 56 58 58 61 61 61 66 79 68 67 67 52 46 44 41 45 56 55 42 31 27 35 42 45 44 43 36 41 39 44 44
36 30 27 27 31 37 43 47 51 53 53 55 56 55 54 55 57 56 60 64 73 69 60 64 59 59 54 49 56 58 59 49 36 44 47 44 37 36 38 37 40 41 40
28 29 31 35 39 42 44 48 51 53 54 54 54 55 55 52 52 49 50 49 55 67 64 56 60 61 61 64 66 62 61 49 45 43 42 52 52 37 33 32 37 47 43
31 32 33 36 39 43 47 51 53 51 51 51 50 50 48 46 47 47 47 56 60 65 79 63 70 70 68 74 66 64 69 64 49 31 23 33 40 41 40 32 33 39 42
26 30 36 41 46 48 49 50 50 50 47 44 43 45 48 50 53 54 56 61 67 73 89 91 77 76 78 86 85 72 62 65 64 49 45 39 43 40 36 36 33 26 31
33 38 40 42 46 49 53 55 50 43 42 44 47 48 51 56 62 67 71 78 83 86 91 98 79 67 67 69 76 77 62 59 55 61 52 39 35 39 43 44 45 38 38
40 44 48 51 53 54 50 40 36 38 41 47 53 59 66 68 74 78 81 86 84 87 93 85 82 71 65 64 68 72 73 59 58 50 59 60 49 46 49 45 51 51 48
41 44 47 50 52 53 47 39 41 47 55 60 63 67 73 77 80 79 75 70 76 83 76 75 76 67 60 56 61 67 78 66 59 48 47 43 43 48 47 41 45 43 43
46 51 56 59 59 56 43 43 49 58 65 67 63 66 70 70 68 63 68 68 68 68 71 74 77 75 61 55 61 63 67 66 58 50 42 36 30 41 43 39 36 38 39
54 57 57 56 53 46 38 45 52 58 50 56 68 70 65 55 54 58 63 64 65 73 79 78 75 70 70 64 59 62 61 64 59 36 21 33 34 38 37 34 34 36 37
50 50 42 38 39 38 39 44 46 48 57 68 65 58 57 62 64 66 66 61 65 73 75 76 83 82 77 70 67 66 60 60 63 53 41 26 28 32 30 32 31 33 32
47 40 34 33 34 36 39 41 44 52 57 53 53 57 65 69 69 65 63 74 72 72 75 73 78 80 77 72 63 62 64 65 67 67 52 42 29 32 24 21 23 23 30
44 33 30 32 33 34 34 40 43 46 47 54 58 61 69 63 57 50 56 67 72 69 70 69 67 65 67 66 62 55 56 51 53 53 44 35 28 24 19 17 17 30 31
34 30 28 29 34 40 40 40 36 35 49 60 61 60 56 57 61 60 69 76 83 84 60 60 65 65 64 58 60 65 63 66 57 48 41 34 34 28 18 22 24 36 47
Wind_Direction_850mb
248 233 228 232 247 269 281 285 271 267 262 243 239 239 253 269 272 266 265 269 281 293 295 294 291 299 296 295 292 294 297 297 294 288 281 278 274 271 269 267 266 267 269
244 229 235 244 245 249 260 267 265 264 270 262 259 252 257 262 266 270 269 261 285 295 293 290 291 295 289 286 284 287 294 295 290 289 288 281 277 274 271 268 264 264 267
217 224 242 230 234 244 258 258 258 260 266 273 260 246 258 265 269 286 258 265 279 285 295 298 296 299 302 297 287 290 291 292 294 285 284 284 281 275 270 268 267 264 264
222 218 234 234 234 237 264 261 323 311 300 272 321 7 313 333 288 283 265 271 267 296 301 297 295 298 292 289 284 285 285 286 293 289 288 280 281 280 277 271 268 267 264
221 230 238 251 243 251 239 271 261 251 257 291 262 280 339 295 285 288 289 290 290 288 293 294 297 298 299 299 295 295 289 285 283 279 280 282 279 281 280 276 270 267 264
238 256 297 248 264 266 257 239 262 255 277 277 262 267 265 277 277 279 284 284 289 289 283 286 289 292 296 297 295 294 294 292 292 287 283 275 280 284 285 279 275 265 261
261 256 249 239 254 230 242 240 241 253 262 262 268 282 271 271 275 279 292 299 304 303 297 292 292 290 289 287 290 296 290 289 292 281 278 279 277 282 297 289 279 273 263
202 253 207 221 232 220 218 207 198 214 223 234 251 264 285 282 293 295 298 300 303 301 301 301 300 298 293 293 289 292 297 288 283 292 283 277 280 279 276 282 280 273 266
231 222 210 207 208 224 207 204 215 230 231 226 249 262 274 282 302 303 298 299 300 298 300 301 290 286 286 284 286 282 299 294 298 299 274 283 286 286 281 278 280 267 275
228 208 218 211 221 213 209 227 222 229 248 263 270 277 280 283 289 296 294 294 298 299 298 295 301 298 287 286 283 285 283 291 291 288 290 292 289 286 292 284 278 268 261
218 222 220 216 212 221 226 228 236 248 263 274 281 286 288 289 291 294 297 298 293 296 295 290 291 283 283 283 287 285 285 289 283 290 279 282 284 285 288 273 273 274 261
188 196 210 218 224 231 239 250 262 275 280 282 284 285 286 289 288 289 292 294 295 294 293 286 284 284 284 281 277 293 290 291 275 285 281 286 285 280 280 279 276 277 280
192 199 209 223 236 248 263 275 280 283 285 286 288 289 287 286 287 289 288 292 295 298 303 301 305 294 292 289 275 277 291 289 293 280 280 278 282 273 266 272 275 284 280
206 211 225 239 252 265 273 278 282 286 291 294 294 295 295 294 293 294 293 294 298 295 290 290 286 284 282 282 278 280 280 282 282 284 283 288 289 270 270 268 273 277 280
220 236 252 265 271 275 281 285 288 290 289 289 293 297 298 298 292 289 288 290 293 297 295 293 288 293 293 291 281 278 284 276 283 283 286 280 284 282 270 270 277 274 281
241 253 265 277 286 291 294 295 297 298 299 300 300 299 296 294 289 286 288 290 287 289 292 290 292 297 299 298 295 283 275 276 273 272 268 279 288 277 281 271 278 277 264
281 285 289 292 294 295 296 297 297 298 296 297 295 289 290 291 289 291 292 289 287 287 292 293 291 290 291 293 296 293 280 275 270 259 261 273 279 277 276 274 274 292 289
291 292 295 297 300 300 299 295 295 292 291 290 290 293 289 287 289 289 288 288 289 289 293 294 292 289 291 294 294 297 289 271 268 259 256 249 269 267 274 268 259 275 288
295 296 296 298 299 301 302 294 291 290 287 285 286 287 288 291 292 292 291 291 290 292 293 287 288 291 289 291 292 287 285 283 269 265 256 253 256 265 279 269 250 255 269
293 294 294 295 299 302 300 292 291 289 287 286 286 288 290 293 294 294 292 290 289 290 289 287 285 287 288 287 288 292 296 290 276 260 258 252 256 262 267 263 245 243 258
291 291 291 290 293 295 296 296 290 289 289 288 285 290 295 296 295 292 293 288 286 287 288 284 283 288 286 282 287 292 289 292 280 256 265 247 252 255 263 254 242 241 252
293 292 292 292 289 285 281 283 285 289 290 291 294 300 301 301 301 303 299 294 290 291 289 285 280 277 280 278 280 283 283 285 289 247 266 253 259 263 261 252 241 240 247
299 299 298 297 291 282 283 284 291 294 293 296 300 303 304 303 304 302 301 300 296 290 284 282 278 277 275 271 277 273 273 273 276 251 267 300 239 245 252 254 240 238 230
306 310 306 307 300 293 293 300 305 303 302 304 305 302 302 306 310 310 304 294 291 288 285 278 272 273 272 275 271 270 271 270 271 264 259 272 244 251 257 257 230 216 210
316 311 309 308 311 313 320 316 312 306 305 305 303 306 313 317 322 316 305 301 301 298 298 290 284 277 271 268 265 264 261 260 263 263 252 242 246 241 247 238 210 192 200
324 321 319 322 318 316 322 321 314 305 300 305 312 319 324 326 322 316 311 308 304 309 306 296 288 281 276 264 253 246 246 247 252 267 240 224 230 226 221 214 206 198 186